EW4699 Weather Reports


Display with metric or nautical units.
time (UTC)temp
F
wind
direction
speed
MPH
gust
MPH
rain 1hr
in
rain 24hr
in
rain mn
in
humidity
%
barometer
mb
20260505214657 33 131 0.0 0.0 0.00 0.00 0.00 68 1011.8
20260505213056 33 90 1.0 3.0 0.00 0.00 0.00 68 1011.8
20260505211657 33 309 0.0 0.0 0.00 0.00 0.00 71 1011.6
20260505210105 33 308 0.0 1.0 0.00 0.00 0.00 71 1011.5
20260505204659 34 308 0.0 0.0 0.00 0.00 0.00 65 1011.4
20260505203107 35 308 0.0 0.0 0.00 0.00 0.00 60 1011.2
20260505201657 37 308 0.0 0.0 0.00 0.00 0.00 56 1011.1
20260505200109 38 308 0.0 1.0 0.00 0.00 0.00 52 1011.1
20260505194657 40 308 0.0 1.0 0.00 0.00 0.00 48 1010.9
20260505193104 40 309 0.0 1.0 0.00 0.00 0.00 45 1010.8
20260505191700 42 309 0.0 1.0 0.00 0.00 0.00 43 1010.7
20260505190057 44 310 0.0 1.0 0.00 0.00 0.00 38 1010.6
20260505184657 44 310 0.0 2.0 0.00 0.01 0.00 35 1010.5
20260505183057 45 311 1.0 6.0 0.00 0.01 0.00 33 1010.4
20260505181700 45 326 3.0 9.0 0.00 0.01 0.00 32 1010.2
20260505180057 46 310 6.0 13.0 0.00 0.01 0.00 30 1010.3
20260505174657 46 304 5.0 11.0 0.00 0.01 0.00 29 1010.1
20260505173057 47 288 4.0 8.0 0.00 0.01 0.00 30 1010.0
20260505171700 47 278 4.0 10.0 0.00 0.01 0.00 31 1010.0
20260505170057 47 304 5.0 11.0 0.00 0.01 0.00 30 1009.8
20260505164657 48 301 6.0 15.0 0.00 0.01 0.00 29 1009.8
20260505163103 49 288 3.0 8.0 0.00 0.01 0.00 27 1009.7
20260505161657 48 282 6.0 11.0 0.00 0.01 0.00 27 1009.8
20260505153057 49 284 5.0 12.0 0.00 0.01 0.00 23 1009.6
20260505151658 49 286 5.0 13.0 0.00 0.01 0.00 23 1009.5
20260505150107 49 254 5.0 16.0 0.00 0.01 0.00 22 1009.3
20260505140105 46 309 5.0 14.0 0.00 0.01 0.00 25 1009.3
20260505130112 49 292 7.0 19.0 0.00 0.01 0.00 25 1009.3
20260505124658 47 309 5.0 10.0 0.00 0.01 0.00 31 1009.3
20260505123102 45 327 5.0 9.0 0.00 0.01 0.00 31 1009.4
20260505121658 47 329 1.0 10.0 0.00 0.01 0.00 30 1009.2
20260505120113 47 316 8.0 15.0 0.00 0.01 0.00 30 1009.2
20260505114659 47 277 2.0 9.0 0.00 0.01 0.00 30 1009.1
20260505113116 47 311 3.0 9.0 0.00 0.01 0.00 30 1009.1
20260505111657 48 228 3.0 10.0 0.00 0.01 0.00 29 1009.2
20260505110125 47 278 3.0 7.0 0.00 0.01 0.00 34 1009.2
20260505101658 45 223 1.0 6.0 0.00 0.01 0.00 35 1009.4
20260505094701 43 324 2.0 5.0 0.00 0.01 0.00 41 1009.6
20260505093100 43 328 1.0 5.0 0.00 0.01 0.00 41 1009.6
20260505091658 43 303 1.0 5.0 0.00 0.01 0.00 40 1009.6
20260505090106 44 293 1.0 5.0 0.00 0.01 0.00 40 1009.6
20260505084658 42 304 1.0 5.0 0.00 0.01 0.00 43 1009.6
20260505083105 43 293 3.0 5.0 0.00 0.01 0.00 44 1009.5
20260505081658 43 300 2.0 7.0 0.00 0.01 0.00 42 1009.4
20260505080058 43 331 3.0 9.0 0.00 0.01 0.00 44 1009.3
20260505074658 40 264 3.0 7.0 0.00 0.01 0.00 47 1009.3
20260505073104 39 288 2.0 8.0 0.00 0.01 0.00 48 1009.2
20260505071658 39 325 4.0 8.0 0.00 0.01 0.00 49 1009.2
20260505070059 40 325 2.0 9.0 0.00 0.01 0.00 48 1009.2
20260505064658 40 316 1.0 7.0 0.00 0.01 0.00 49 1009.1
20260505063059 40 350 1.0 6.0 0.00 0.01 0.00 50 1009.1
20260505061657 40 320 3.0 8.0 0.00 0.01 0.00 50 1009.0
20260505060059 39 5 3.0 7.0 0.00 0.01 0.00 52 1009.0
20260505054658 39 308 2.0 9.0 0.00 0.01 0.00 53 1008.9
20260505053058 38 330 0.0 6.0 0.00 0.01 0.00 56 1008.9
20260505051659 38 267 0.0 4.0 0.00 0.01 0.00 58 1008.8
20260505041700 34 310 0.0 0.0 0.00 0.01 0.00 69 1008.3
20260505040104 33 311 0.0 0.0 0.00 0.01 0.00 73 1008.1
20260505034659 32 310 0.0 1.0 0.00 0.01 0.00 72 1008.1
20260505033059 31 306 2.0 4.0 0.00 0.01 0.00 76 1007.9
20260505031659 31 331 0.0 2.0 0.00 0.01 0.00 74 1008.0
20260505024700 33 344 2.0 3.0 0.00 0.01 0.00 69 1007.6
20260505023059 34 351 0.0 5.0 0.00 0.01 0.00 67 1007.6
20260505021701 34 347 2.0 9.0 0.00 0.01 0.00 66 1007.5
20260505020103 35 5 3.0 12.0 0.00 0.01 0.00 65 1007.2
20260505014659 34 317 6.0 11.0 0.00 0.01 0.00 67 1007.2
20260505013059 35 328 3.0 8.0 0.00 0.01 0.00 68 1007.2
20260505011700 35 355 3.0 8.0 0.00 0.01 0.00 67 1007.1
20260505010059 36 351 2.0 6.0 0.00 0.01 0.00 67 1006.9
20260505004701 36 319 4.0 11.0 0.00 0.01 0.00 68 1006.9
20260505003100 36 328 4.0 7.0 0.00 0.01 0.00 68 1006.7
20260505001658 36 323 4.0 8.0 0.00 0.01 0.00 68 1006.5
20260505000100 37 293 3.0 11.0 0.00 0.01 0.00 66 1006.4
20260504234701 37 317 3.0 9.0 0.00 0.01 0.00 66 1006.4
20260504233102 37 306 4.0 9.0 0.00 0.01 0.00 66 1006.5
20260504231700 37 5 1.0 9.0 0.00 0.01 0.00 67 1006.4
20260504230059 37 327 2.0 9.0 0.00 0.01 0.00 69 1006.2
20260504224701 37 319 5.0 12.0 0.00 0.01 0.00 71 1006.0
20260504223102 37 302 7.0 12.0 0.00 0.01 0.00 74 1006.0
20260504220107 38 298 6.0 12.0 0.00 0.01 0.00 74 1005.8